Home   Weather   27°56'N, 82°27'W   Past weeks
Flag for USA

Past Weather in 27°56'N, 82°27'W, USA — Yesterday and Last 2 Weeks

Now
91 °F

Cloudy.


Feels Like: 103 °F
Forecast: 94 / 78 °F
Wind: 7 mph from East

Location: Tampa, Peter O Knight Airport

Current Time: Jun 26, 2019 at 12:27:29 pm

Latest Report: Jun 26, 2019 at 11:55 am


Visibility: 10 mi

Pressure: 30.11 "Hg

Humidity: 59%

Dew Point: 75 °F

Location of 27°56'N, 82°27'WLocation

Past Weather in 27°56'N, 82°27'W — Graph

°F

27°56'N, 82°27'W Temperature Yesterday

Maximum temperature yesterday: 95 °F (at 1:15 pm)
Minimum temperature yesterday: 81 °F (at 12:55 am)
Average temperature yesterday: 88 °F

High & Low Weather Summary for the Past Weeks

 TemperatureHumidityPressure
High95 °F (Jun 25, 1:15 pm)100% (Jun 11, 10:15 pm)30.16 "Hg (Jun 11, 10:15 pm)
Low77 °F (Jun 11, 9:15 pm)44% (Jun 24, 4:55 pm)29.95 "Hg (Jun 11, 4:35 pm)
Average85 °F78%30.05 "Hg
* Reported Jun 11 11:35 am — Jun 26 11:35 am, 27°56'N, 82°27'W. Weather by CustomWeather, © 2019

Note: Actual official high and low records may vary slightly from our data, if they occured in-between our weather recording intervals... More about our weather records

Advertising

27°56'N, 82°27'W Weather History for the Previous 24 Hours

Scroll right to see more
 ConditionsComfort  
Time TempWeatherWind HumidityBarometerVisibility
11:35 am
Wed, Jun 26
95 °FCloudy.10 mph56%30.11 "Hg10 mi
11:15 am91 °FMore clouds than sun.6 mph63%30.12 "Hg10 mi
10:55 am91 °FOvercast.7 mph67%30.11 "Hg10 mi
10:35 am91 °FOvercast.6 mph67%30.12 "Hg10 mi
10:15 am90 °FOvercast.No wind71%30.12 "Hg10 mi
9:35 am86 °FScattered clouds.3 mph79%30.13 "Hg10 mi
9:15 am86 °FPartly sunny.5 mph75%30.13 "Hg10 mi
8:55 am86 °FBroken clouds.5 mph75%30.12 "Hg10 mi
8:35 am84 °FPartly sunny.3 mph79%30.12 "Hg10 mi
8:15 am82 °FMore clouds than sun.5 mph84%30.11 "Hg10 mi
7:55 am82 °FOvercast.No wind89%30.11 "Hg10 mi
7:35 am82 °FOvercast.No wind89%30.11 "Hg10 mi
7:15 am82 °FMore clouds than sun.No wind89%30.11 "Hg10 mi
6:55 am82 °FOvercast.No wind89%30.10 "Hg10 mi
6:35 am81 °FMostly cloudy.No wind89%30.09 "Hg10 mi
6:15 am81 °FMostly cloudy.No wind89%30.09 "Hg10 mi
5:55 am81 °FMostly cloudy.No wind89%30.09 "Hg10 mi
5:35 am81 °FMostly cloudy.No wind84%30.08 "Hg10 mi
5:15 am81 °FOvercast.No wind84%30.08 "Hg10 mi
4:35 am81 °FOvercast.No wind79%30.07 "Hg10 mi
4:15 am81 °FOvercast.No wind79%30.06 "Hg10 mi
3:55 am81 °FOvercast.No wind79%30.07 "Hg10 mi
3:35 am81 °FOvercast.No wind79%30.07 "Hg10 mi
3:15 am81 °FOvercast.No wind79%30.08 "Hg10 mi
2:55 am81 °FOvercast.No wind74%30.08 "Hg10 mi
2:35 am81 °FMostly cloudy.No wind79%30.08 "Hg10 mi
2:15 am81 °FMostly cloudy.No wind74%30.09 "Hg10 mi
1:55 am82 °FMostly cloudy.No wind66%30.09 "Hg10 mi
1:35 am82 °FOvercast.No wind70%30.10 "Hg10 mi
1:15 am82 °FOvercast.No wind70%30.11 "Hg10 mi
12:55 am82 °FOvercast.No wind70%30.11 "Hg10 mi
12:35 am84 °FOvercast.5 mph70%30.11 "Hg10 mi
12:15 am84 °FOvercast.5 mph74%30.11 "Hg10 mi
11:55 pm
Tue, Jun 25
86 °FOvercast.No wind79%30.11 "Hg10 mi
11:35 pm86 °FOvercast.5 mph79%30.10 "Hg10 mi
11:15 pm86 °FOvercast.No wind79%30.09 "Hg10 mi
10:55 pm86 °FOvercast.3 mph79%30.09 "Hg10 mi
10:35 pm86 °FOvercast.No wind79%30.09 "Hg10 mi
10:15 pm86 °FPassing clouds.6 mph79%30.09 "Hg10 mi
9:35 pm86 °FPassing clouds.6 mph79%30.06 "Hg10 mi
9:15 pm88 °FPassing clouds.5 mph70%30.06 "Hg10 mi
8:55 pm88 °FPassing clouds.7 mph70%30.06 "Hg10 mi
8:35 pm88 °FOvercast.7 mph66%30.05 "Hg10 mi
8:15 pm90 °FOvercast.5 mph63%30.04 "Hg10 mi
7:55 pm90 °FPartly sunny.7 mph63%30.03 "Hg10 mi
7:35 pm90 °FPartly sunny.7 mph63%30.02 "Hg10 mi
7:15 pm91 °FOvercast.6 mph56%30.01 "Hg10 mi
6:15 pm93 °FOvercast.6 mph56%30.02 "Hg10 mi
5:55 pm95 °FOvercast.7 mph56%30.01 "Hg10 mi
5:35 pm95 °FMore clouds than sun.9 mph53%30.02 "Hg10 mi
5:15 pm95 °FMore clouds than sun.6 mph56%30.02 "Hg10 mi
4:55 pm95 °FMore clouds than sun.9 mph60%30.02 "Hg10 mi
4:35 pm95 °FMore clouds than sun.5 mph56%30.02 "Hg10 mi
4:15 pm95 °FBroken clouds.5 mph56%30.03 "Hg10 mi
3:55 pm95 °FBroken clouds.7 mph60%30.04 "Hg10 mi
3:35 pm95 °FBroken clouds.8 mph56%30.04 "Hg10 mi
3:15 pm95 °FScattered clouds.8 mph56%30.05 "Hg10 mi
2:55 pm95 °FBroken clouds.8 mph60%30.05 "Hg10 mi
2:35 pm95 °FScattered clouds.8 mph56%30.06 "Hg10 mi
1:55 pm95 °FBroken clouds.6 mph56%30.06 "Hg10 mi
1:35 pm95 °FScattered clouds.6 mph56%30.06 "Hg10 mi
1:15 pm95 °FScattered clouds.6 mph56%30.07 "Hg10 mi
12:55 pm93 °FScattered clouds.6 mph63%30.07 "Hg10 mi
12:35 pm91 °FScattered clouds.6 mph67%30.08 "Hg10 mi
12:15 pm93 °FScattered clouds.7 mph67%30.08 "Hg10 mi
Weather by CustomWeather, © 2019

See weather overview